Location: Unspecified
(0.0000°N, 0.0000°E)
Time: 05:01:53
(UTC+00:00)

deb Delta 104 - Pass Details

Date: 11 March 2026
Orbit: 1430 x 1579 km, 102.3° (Epoch: 17 April)

Event Time Altitude Azimuth Distance (km) Brightness Sun altitude
Rises 05:03:48 0° 14° (NNE) 4,752 ? -16.5°
Reaches altitude 10° 05:06:40 10° 14° (NNE) 3,771 ? -15.8°
Maximum altitude 05:15:36 83° 287° (WNW) 1,584 ? -13.6°
Drops below altitude 10° 05:24:26 10° 199° (SSW) 3,730 ? -11.4°
Sets 05:27:15 0° 198° (SSW) 4,699 ? -10.7°
